{"data":{"norad_id":49164,"intl_designator":"2021-082AL","name":"STARLINK-3106","alt_names":[],"object_type":"PAYLOAD","status":"ACTIVE","operator":null,"country":"US","launch_date":"2021-09-14","launch_site_code":"AFWTR","launch_vehicle":null,"mission":null,"orbit_class":"UNKNOWN","rcs_meters":null,"size_class":null,"mass_kg":null,"dimensions":null,"purposes":["comms"],"wikipedia_slug":null,"has_3d_model":false,"image_url":null,"decayed_at":null,"tle_current":{"epoch":"2026-05-25T03:29:35.354112Z","epoch_age_seconds":76677,"freshness":"FRESH","line1":"1 49164U 21082AL  26145.14554808  .00001096  00000+0  99659-4 0  9997","line2":"2 49164  70.0002  81.6822 0002724 266.8276  93.2571 14.98334826259083","mean_motion":14.98334826,"eccentricity":0.0002724,"inclination_deg":70.0002,"raan_deg":81.6822,"arg_perigee_deg":266.8276,"mean_anomaly_deg":93.2571,"bstar":9.9659e-5,"rev_number":25908,"period_min":96.106689573803,"perigee_km":570.14773849937,"apogee_km":573.93419545578,"semimajor_km":6950.1779669776,"source":"CELESTRAK","updated_at":"2026-05-25T13:38:16.791012Z"}}}